Voltar ao catálogo

STARLINK-35778

AtivoComunicaçõesVLEO
NORAD 66973·PAYLOAD·🇺🇸 United States

Lançado Dec 8, 2025 de Cape Canaveral Space Force Station

Loading…

Próximas Passagens (próximas 24 horas)

TLE

AtualizadoSource: CelesTrak SupGP

Época: Sep 14, 2026, 22:58 UTC

1 66973C 25288Q   26257.95743056  .00021864  00000+0  79175-3 0  2576
2 66973  43.0011  34.2436 0001401 273.8656 216.8685 15.27574149    19

Acompanhe STARLINK-35778 em tempo real com AllMySat

Download on the App Store